owner,sensor,date,latitude,longitude,vertical_datum,sea_water_temperature,qcFlag 
ENP,ioos.station.NOAA.NDBC:WIWF1:1,2016-01-01T00:00:00Z,25.5870,-81.0440,1.0,26.45,2 
ENP,ioos.station.NOAA.NDBC:WIWF1:1,2016-01-01T01:00:00Z,25.5870,-81.0440,1.0,26.3,2 
ENP,ioos.station.NOAA.NDBC:WIWF1:1,2016-01-01T02:00:00Z,25.5870,-81.0440,1.0,26.12,2 
ENP,ioos.station.NOAA.NDBC:WIWF1:1,2016-01-01T04:00:00Z,25.5870,-81.0440,1.0,25.91,2 
ENP,ioos.station.NOAA.NDBC:WIWF1:1,2016-01-01T05:00:00Z,25.5870,-81.0440,1.0,25.79,2 
ENP,ioos.station.NOAA.NDBC:WIWF1:1,2016-01-01T06:00:00Z,25.5870,-81.0440,1.0,25.53,2 
ENP,ioos.station.NOAA.NDBC:WIWF1:1,2016-01-01T07:00:00Z,25.5870,-81.0440,1.0,25.42,2 
ENP,ioos.station.NOAA.NDBC:WIWF1:1,2016-01-01T08:00:00Z,25.5870,-81.0440,1.0,25.28,2 
ENP,ioos.station.NOAA.NDBC:WIWF1:1,2016-01-01T09:00:00Z,25.5870,-81.0440,1.0,25.08,2 
ENP,ioos.station.NOAA.NDBC:WIWF1:1,2016-01-01T10:00:00Z,25.5870,-81.0440,1.0,24.9,2 
ENP,ioos.station.NOAA.NDBC:WIWF1:1,2016-01-01T11:00:00Z,25.5870,-81.0440,1.0,24.61,2 
ENP,ioos.station.NOAA.NDBC:WIWF1:1,2016-01-01T12:00:00Z,25.5870,-81.0440,1.0,24.32,2 
ENP,ioos.station.NOAA.NDBC:WIWF1:1,2016-01-01T13:00:00Z,25.5870,-81.0440,1.0,24.23,2 
ENP,ioos.station.NOAA.NDBC:WIWF1:1,2016-01-01T14:00:00Z,25.5870,-81.0440,1.0,24.22,2 
ENP,ioos.station.NOAA.NDBC:WIWF1:1,2016-01-01T15:00:00Z,25.5870,-81.0440,1.0,24.3,2 
ENP,ioos.station.NOAA.NDBC:WIWF1:1,2016-01-02T18:00:00Z,25.5870,-81.0440,1.0,24.79,2 
ENP,ioos.station.NOAA.NDBC:WIWF1:1,2016-01-02T19:00:00Z,25.5870,-81.0440,1.0,24.87,2 
ENP,ioos.station.NOAA.NDBC:WIWF1:1,2016-01-02T20:00:00Z,25.5870,-81.0440,1.0,25.01,2 
ENP,ioos.station.NOAA.NDBC:WIWF1:1,2016-01-02T21:00:00Z,25.5870,-81.0440,1.0,25.2,2 
ENP,ioos.station.NOAA.NDBC:WIWF1:1,2016-01-02T22:00:00Z,25.5870,-81.0440,1.0,25.39,2 
ENP,ioos.station.NOAA.NDBC:WIWF1:1,2016-01-02T23:00:00Z,25.5870,-81.0440,1.0,25.54,2 
ENP,ioos.station.NOAA.NDBC:WIWF1:1,2016-01-03T00:00:00Z,25.5870,-81.0440,1.0,25.63,2 
ENP,ioos.station.NOAA.NDBC:WIWF1:1,2016-01-03T01:00:00Z,25.5870,-81.0440,1.0,25.65,2 
ENP,ioos.station.NOAA.NDBC:WIWF1:1,2016-01-03T02:00:00Z,25.5870,-81.0440,1.0,25.6,2 
ENP,ioos.station.NOAA.NDBC:WIWF1:1,2016-01-03T04:00:00Z,25.5870,-81.0440,1.0,25.45,2 
ENP,ioos.station.NOAA.NDBC:WIWF1:1,2016-01-03T05:00:00Z,25.5870,-81.0440,1.0,25.35,2 
ENP,ioos.station.NOAA.NDBC:WIWF1:1,2016-01-03T06:00:00Z,25.5870,-81.0440,1.0,25.29,2 
ENP,ioos.station.NOAA.NDBC:WIWF1:1,2016-01-03T07:00:00Z,25.5870,-81.0440,1.0,25.21,2 
ENP,ioos.station.NOAA.NDBC:WIWF1:1,2016-01-03T09:00:00Z,25.5870,-81.0440,1.0,24.97,2 
ENP,ioos.station.NOAA.NDBC:WIWF1:1,2016-01-03T10:00:00Z,25.5870,-81.0440,1.0,24.83,2 
ENP,ioos.station.NOAA.NDBC:WIWF1:1,2016-01-03T11:00:00Z,25.5870,-81.0440,1.0,24.6,2 
ENP,ioos.station.NOAA.NDBC:WIWF1:1,2016-01-03T12:00:00Z,25.5870,-81.0440,1.0,24.27,2 
ENP,ioos.station.NOAA.NDBC:WIWF1:1,2016-01-03T13:00:00Z,25.5870,-81.0440,1.0,23.84,2 
ENP,ioos.station.NOAA.NDBC:WIWF1:1,2016-01-03T14:00:00Z,25.5870,-81.0440,1.0,23.6,2 
ENP,ioos.station.NOAA.NDBC:WIWF1:1,2016-01-03T15:00:00Z,25.5870,-81.0440,1.0,23.34,2 
ENP,ioos.station.NOAA.NDBC:WIWF1:1,2016-01-03T16:00:00Z,25.5870,-81.0440,1.0,23.3,2 
ENP,ioos.station.NOAA.NDBC:WIWF1:1,2016-01-03T17:00:00Z,25.5870,-81.0440,1.0,23.36,2 
ENP,ioos.station.NOAA.NDBC:WIWF1:1,2016-01-03T18:00:00Z,25.5870,-81.0440,1.0,23.5,2 
ENP,ioos.station.NOAA.NDBC:WIWF1:1,2016-01-03T19:00:00Z,25.5870,-81.0440,1.0,23.66,2 
ENP,ioos.station.NOAA.NDBC:WIWF1:1,2016-01-03T20:00:00Z,25.5870,-81.0440,1.0,23.72,2 
ENP,ioos.station.NOAA.NDBC:WIWF1:1,2016-01-03T21:00:00Z,25.5870,-81.0440,1.0,23.74,2 
ENP,ioos.station.NOAA.NDBC:WIWF1:1,2016-01-03T22:00:00Z,25.5870,-81.0440,1.0,23.68,2 
ENP,ioos.station.NOAA.NDBC:WIWF1:1,2016-01-03T23:00:00Z,25.5870,-81.0440,1.0,23.61,2 
ENP,ioos.station.NOAA.NDBC:WIWF1:1,2016-01-04T00:00:00Z,25.5870,-81.0440,1.0,23.57,2 
ENP,ioos.station.NOAA.NDBC:WIWF1:1,2016-01-04T01:00:00Z,25.5870,-81.0440,1.0,23.54,2 
ENP,ioos.station.NOAA.NDBC:WIWF1:1,2016-01-04T02:00:00Z,25.5870,-81.0440,1.0,23.45,2 
ENP,ioos.station.NOAA.NDBC:WIWF1:1,2016-01-04T04:00:00Z,25.5870,-81.0440,1.0,23.41,2 
ENP,ioos.station.NOAA.NDBC:WIWF1:1,2016-01-04T05:00:00Z,25.5870,-81.0440,1.0,23.37,2 
ENP,ioos.station.NOAA.NDBC:WIWF1:1,2016-01-04T06:00:00Z,25.5870,-81.0440,1.0,23.33,2 
ENP,ioos.station.NOAA.NDBC:WIWF1:1,2016-01-04T07:00:00Z,25.5870,-81.0440,1.0,23.25,2 
ENP,ioos.station.NOAA.NDBC:WIWF1:1,2016-01-04T08:00:00Z,25.5870,-81.0440,1.0,23.02,2 
ENP,ioos.station.NOAA.NDBC:WIWF1:1,2016-01-04T09:00:00Z,25.5870,-81.0440,1.0,22.76,2 
ENP,ioos.station.NOAA.NDBC:WIWF1:1,2016-01-04T10:00:00Z,25.5870,-81.0440,1.0,22.5,2 
ENP,ioos.station.NOAA.NDBC:WIWF1:1,2016-01-04T11:00:00Z,25.5870,-81.0440,1.0,22.23,2 
ENP,ioos.station.NOAA.NDBC:WIWF1:1,2016-01-04T12:00:00Z,25.5870,-81.0440,1.0,21.9,2 
ENP,ioos.station.NOAA.NDBC:WIWF1:1,2016-01-04T13:00:00Z,25.5870,-81.0440,1.0,21.59,2 
ENP,ioos.station.NOAA.NDBC:WIWF1:1,2016-01-04T14:00:00Z,25.5870,-81.0440,1.0,21.18,2 
ENP,ioos.station.NOAA.NDBC:WIWF1:1,2016-01-04T15:00:00Z,25.5870,-81.0440,1.0,20.81,2 
ENP,ioos.station.NOAA.NDBC:WIWF1:1,2016-01-04T16:00:00Z,25.5870,-81.0440,1.0,20.6,2 
ENP,ioos.station.NOAA.NDBC:WIWF1:1,2016-01-04T17:00:00Z,25.5870,-81.0440,1.0,20.62,2 
ENP,ioos.station.NOAA.NDBC:WIWF1:1,2016-01-04T18:00:00Z,25.5870,-81.0440,1.0,20.81,2 
ENP,ioos.station.NOAA.NDBC:WIWF1:1,2016-01-04T19:00:00Z,25.5870,-81.0440,1.0,21.2,2 
ENP,ioos.station.NOAA.NDBC:WIWF1:1,2016-01-04T20:00:00Z,25.5870,-81.0440,1.0,21.45,2 
ENP,ioos.station.NOAA.NDBC:WIWF1:1,2016-01-04T21:00:00Z,25.5870,-81.0440,1.0,21.45,2 
ENP,ioos.station.NOAA.NDBC:WIWF1:1,2016-01-04T22:00:00Z,25.5870,-81.0440,1.0,21.43,2 
ENP,ioos.station.NOAA.NDBC:WIWF1:1,2016-01-04T23:00:00Z,25.5870,-81.0440,1.0,21.31,2 
ENP,ioos.station.NOAA.NDBC:WIWF1:1,2016-01-05T00:00:00Z,25.5870,-81.0440,1.0,21.12,2 
ENP,ioos.station.NOAA.NDBC:WIWF1:1,2016-01-05T01:00:00Z,25.5870,-81.0440,1.0,20.92,2 
ENP,ioos.station.NOAA.NDBC:WIWF1:1,2016-01-05T02:00:00Z,25.5870,-81.0440,1.0,20.75,2 
ENP,ioos.station.NOAA.NDBC:WIWF1:1,2016-01-05T04:00:00Z,25.5870,-81.0440,1.0,20.61,2 
ENP,ioos.station.NOAA.NDBC:WIWF1:1,2016-01-05T05:00:00Z,25.5870,-81.0440,1.0,20.62,2 
ENP,ioos.station.NOAA.NDBC:WIWF1:1,2016-01-05T07:00:00Z,25.5870,-81.0440,1.0,20.51,2 
ENP,ioos.station.NOAA.NDBC:WIWF1:1,2016-01-05T08:00:00Z,25.5870,-81.0440,1.0,20.48,2 
ENP,ioos.station.NOAA.NDBC:WIWF1:1,2016-01-05T09:00:00Z,25.5870,-81.0440,1.0,20.26,2 
ENP,ioos.station.NOAA.NDBC:WIWF1:1,2016-01-05T10:00:00Z,25.5870,-81.0440,1.0,19.98,2 
ENP,ioos.station.NOAA.NDBC:WIWF1:1,2016-01-05T11:00:00Z,25.5870,-81.0440,1.0,19.63,2 
ENP,ioos.station.NOAA.NDBC:WIWF1:1,2016-01-05T15:00:00Z,25.5870,-81.0440,1.0,17.9,2 
ENP,ioos.station.NOAA.NDBC:WIWF1:1,2016-01-06T06:00:00Z,25.5870,-81.0440,1.0,18.73,2 
ENP,ioos.station.NOAA.NDBC:WIWF1:1,2016-01-06T17:00:00Z,25.5870,-81.0440,1.0,18.53,2 
ENP,ioos.station.NOAA.NDBC:WIWF1:1,2016-01-07T06:00:00Z,25.5870,-81.0440,1.0,19.77,2 
ENP,ioos.station.NOAA.NDBC:WIWF1:1,2016-01-07T14:00:00Z,25.5870,-81.0440,1.0,19.05,2 
ENP,ioos.station.NOAA.NDBC:WIWF1:1,2016-01-07T15:00:00Z,25.5870,-81.0440,1.0,18.94,2 
ENP,ioos.station.NOAA.NDBC:WIWF1:1,2016-01-07T16:00:00Z,25.5870,-81.0440,1.0,18.98,2 
ENP,ioos.station.NOAA.NDBC:WIWF1:1,2016-01-07T17:00:00Z,25.5870,-81.0440,1.0,19.31,2 
ENP,ioos.station.NOAA.NDBC:WIWF1:1,2016-01-07T18:00:00Z,25.5870,-81.0440,1.0,19.35,2 
ENP,ioos.station.NOAA.NDBC:WIWF1:1,2016-01-07T19:00:00Z,25.5870,-81.0440,1.0,19.47,2 
ENP,ioos.station.NOAA.NDBC:WIWF1:1,2016-01-07T20:00:00Z,25.5870,-81.0440,1.0,19.68,2 
ENP,ioos.station.NOAA.NDBC:WIWF1:1,2016-01-07T21:00:00Z,25.5870,-81.0440,1.0,20.32,2 
ENP,ioos.station.NOAA.NDBC:WIWF1:1,2016-01-07T22:00:00Z,25.5870,-81.0440,1.0,20.7,2 
ENP,ioos.station.NOAA.NDBC:WIWF1:1,2016-01-07T23:00:00Z,25.5870,-81.0440,1.0,20.89,2 
ENP,ioos.station.NOAA.NDBC:WIWF1:1,2016-01-08T00:00:00Z,25.5870,-81.0440,1.0,20.93,2 
ENP,ioos.station.NOAA.NDBC:WIWF1:1,2016-01-08T01:00:00Z,25.5870,-81.0440,1.0,20.89,2 
ENP,ioos.station.NOAA.NDBC:WIWF1:1,2016-01-08T02:00:00Z,25.5870,-81.0440,1.0,20.81,2 
ENP,ioos.station.NOAA.NDBC:WIWF1:1,2016-01-08T03:00:00Z,25.5870,-81.0440,1.0,20.68,2 
ENP,ioos.station.NOAA.NDBC:WIWF1:1,2016-01-08T04:00:00Z,25.5870,-81.0440,1.0,20.42,2 
ENP,ioos.station.NOAA.NDBC:WIWF1:1,2016-01-08T05:00:00Z,25.5870,-81.0440,1.0,20.28,2 
ENP,ioos.station.NOAA.NDBC:WIWF1:1,2016-01-08T07:00:00Z,25.5870,-81.0440,1.0,20.42,2 
ENP,ioos.station.NOAA.NDBC:WIWF1:1,2016-01-08T08:00:00Z,25.5870,-81.0440,1.0,20.53,2 
ENP,ioos.station.NOAA.NDBC:WIWF1:1,2016-01-08T09:00:00Z,25.5870,-81.0440,1.0,20.63,2 
ENP,ioos.station.NOAA.NDBC:WIWF1:1,2016-01-08T10:00:00Z,25.5870,-81.0440,1.0,20.73,2 
ENP,ioos.station.NOAA.NDBC:WIWF1:1,2016-01-08T11:00:00Z,25.5870,-81.0440,1.0,20.81,2 
ENP,ioos.station.NOAA.NDBC:WIWF1:1,2016-01-08T12:00:00Z,25.5870,-81.0440,1.0,20.82,2 
ENP,ioos.station.NOAA.NDBC:WIWF1:1,2016-01-08T13:00:00Z,25.5870,-81.0440,1.0,20.86,2 
ENP,ioos.station.NOAA.NDBC:WIWF1:1,2016-01-08T14:00:00Z,25.5870,-81.0440,1.0,20.86,2 
ENP,ioos.station.NOAA.NDBC:WIWF1:1,2016-01-08T15:00:00Z,25.5870,-81.0440,1.0,20.83,2 
ENP,ioos.station.NOAA.NDBC:WIWF1:1,2016-01-08T16:00:00Z,25.5870,-81.0440,1.0,20.74,2 
ENP,ioos.station.NOAA.NDBC:WIWF1:1,2016-01-08T17:00:00Z,25.5870,-81.0440,1.0,20.52,2 
ENP,ioos.station.NOAA.NDBC:WIWF1:1,2016-01-08T18:00:00Z,25.5870,-81.0440,1.0,20.54,2 
ENP,ioos.station.NOAA.NDBC:WIWF1:1,2016-01-08T19:00:00Z,25.5870,-81.0440,1.0,20.6,2 
ENP,ioos.station.NOAA.NDBC:WIWF1:1,2016-01-08T20:00:00Z,25.5870,-81.0440,1.0,20.65,2 
ENP,ioos.station.NOAA.NDBC:WIWF1:1,2016-01-08T21:00:00Z,25.5870,-81.0440,1.0,20.83,2 
ENP,ioos.station.NOAA.NDBC:WIWF1:1,2016-01-08T22:00:00Z,25.5870,-81.0440,1.0,21.09,2 
ENP,ioos.station.NOAA.NDBC:WIWF1:1,2016-01-08T23:00:00Z,25.5870,-81.0440,1.0,21.52,2 
ENP,ioos.station.NOAA.NDBC:WIWF1:1,2016-01-09T00:00:00Z,25.5870,-81.0440,1.0,21.67,2 
ENP,ioos.station.NOAA.NDBC:WIWF1:1,2016-01-09T01:00:00Z,25.5870,-81.0440,1.0,21.72,2 
ENP,ioos.station.NOAA.NDBC:WIWF1:1,2016-01-09T02:00:00Z,25.5870,-81.0440,1.0,21.73,2 
ENP,ioos.station.NOAA.NDBC:WIWF1:1,2016-01-09T03:00:00Z,25.5870,-81.0440,1.0,21.73,2 
ENP,ioos.station.NOAA.NDBC:WIWF1:1,2016-01-09T04:00:00Z,25.5870,-81.0440,1.0,21.7,2 
ENP,ioos.station.NOAA.NDBC:WIWF1:1,2016-01-09T05:00:00Z,25.5870,-81.0440,1.0,21.52,2 
ENP,ioos.station.NOAA.NDBC:WIWF1:1,2016-01-09T07:00:00Z,25.5870,-81.0440,1.0,21.51,2 
ENP,ioos.station.NOAA.NDBC:WIWF1:1,2016-01-09T08:00:00Z,25.5870,-81.0440,1.0,21.64,2 
ENP,ioos.station.NOAA.NDBC:WIWF1:1,2016-01-09T09:00:00Z,25.5870,-81.0440,1.0,21.67,2 
ENP,ioos.station.NOAA.NDBC:WIWF1:1,2016-01-09T10:00:00Z,25.5870,-81.0440,1.0,21.69,2 
ENP,ioos.station.NOAA.NDBC:WIWF1:1,2016-01-09T11:00:00Z,25.5870,-81.0440,1.0,21.69,2 
ENP,ioos.station.NOAA.NDBC:WIWF1:1,2016-01-09T12:00:00Z,25.5870,-81.0440,1.0,21.68,2 
ENP,ioos.station.NOAA.NDBC:WIWF1:1,2016-01-09T13:00:00Z,25.5870,-81.0440,1.0,21.65,2 
ENP,ioos.station.NOAA.NDBC:WIWF1:1,2016-01-09T14:00:00Z,25.5870,-81.0440,1.0,21.64,2 
ENP,ioos.station.NOAA.NDBC:WIWF1:1,2016-01-09T15:00:00Z,25.5870,-81.0440,1.0,21.62,2 
ENP,ioos.station.NOAA.NDBC:WIWF1:1,2016-01-09T16:00:00Z,25.5870,-81.0440,1.0,21.62,2 
ENP,ioos.station.NOAA.NDBC:WIWF1:1,2016-01-09T17:00:00Z,25.5870,-81.0440,1.0,21.67,2 
ENP,ioos.station.NOAA.NDBC:WIWF1:1,2016-01-09T18:00:00Z,25.5870,-81.0440,1.0,21.89,2 
ENP,ioos.station.NOAA.NDBC:WIWF1:1,2016-01-09T19:00:00Z,25.5870,-81.0440,1.0,22.17,2 
ENP,ioos.station.NOAA.NDBC:WIWF1:1,2016-01-09T20:00:00Z,25.5870,-81.0440,1.0,22.27,2 
ENP,ioos.station.NOAA.NDBC:WIWF1:1,2016-01-09T21:00:00Z,25.5870,-81.0440,1.0,22.37,2 
ENP,ioos.station.NOAA.NDBC:WIWF1:1,2016-01-09T22:00:00Z,25.5870,-81.0440,1.0,22.56,2 
ENP,ioos.station.NOAA.NDBC:WIWF1:1,2016-01-09T23:00:00Z,25.5870,-81.0440,1.0,22.83,2 
ENP,ioos.station.NOAA.NDBC:WIWF1:1,2016-01-10T00:00:00Z,25.5870,-81.0440,1.0,23.08,2 
ENP,ioos.station.NOAA.NDBC:WIWF1:1,2016-01-10T01:00:00Z,25.5870,-81.0440,1.0,23.18,2 
ENP,ioos.station.NOAA.NDBC:WIWF1:1,2016-01-10T02:00:00Z,25.5870,-81.0440,1.0,23.18,2 
ENP,ioos.station.NOAA.NDBC:WIWF1:1,2016-01-10T03:00:00Z,25.5870,-81.0440,1.0,23.18,2 
ENP,ioos.station.NOAA.NDBC:WIWF1:1,2016-01-10T04:00:00Z,25.5870,-81.0440,1.0,23.16,2 
ENP,ioos.station.NOAA.NDBC:WIWF1:1,2016-01-10T05:00:00Z,25.5870,-81.0440,1.0,23.0,2 
ENP,ioos.station.NOAA.NDBC:WIWF1:1,2016-01-10T06:00:00Z,25.5870,-81.0440,1.0,22.81,2 
ENP,ioos.station.NOAA.NDBC:WIWF1:1,2016-01-10T07:00:00Z,25.5870,-81.0440,1.0,22.84,2 
ENP,ioos.station.NOAA.NDBC:WIWF1:1,2016-01-10T08:00:00Z,25.5870,-81.0440,1.0,22.92,2 
ENP,ioos.station.NOAA.NDBC:WIWF1:1,2016-01-10T09:00:00Z,25.5870,-81.0440,1.0,22.94,2 
ENP,ioos.station.NOAA.NDBC:WIWF1:1,2016-01-10T10:00:00Z,25.5870,-81.0440,1.0,22.96,2 
ENP,ioos.station.NOAA.NDBC:WIWF1:1,2016-01-10T12:00:00Z,25.5870,-81.0440,1.0,22.96,2 
ENP,ioos.station.NOAA.NDBC:WIWF1:1,2016-01-10T13:00:00Z,25.5870,-81.0440,1.0,22.97,2 
ENP,ioos.station.NOAA.NDBC:WIWF1:1,2016-01-10T14:00:00Z,25.5870,-81.0440,1.0,22.96,2 
ENP,ioos.station.NOAA.NDBC:WIWF1:1,2016-01-10T15:00:00Z,25.5870,-81.0440,1.0,22.96,2 
ENP,ioos.station.NOAA.NDBC:WIWF1:1,2016-01-10T16:00:00Z,25.5870,-81.0440,1.0,22.97,2 
ENP,ioos.station.NOAA.NDBC:WIWF1:1,2016-01-10T18:00:00Z,25.5870,-81.0440,1.0,23.07,2 
ENP,ioos.station.NOAA.NDBC:WIWF1:1,2016-01-10T19:00:00Z,25.5870,-81.0440,1.0,23.07,2 
ENP,ioos.station.NOAA.NDBC:WIWF1:1,2016-01-10T20:00:00Z,25.5870,-81.0440,1.0,23.06,2 
ENP,ioos.station.NOAA.NDBC:WIWF1:1,2016-01-10T21:00:00Z,25.5870,-81.0440,1.0,23.07,2 
ENP,ioos.station.NOAA.NDBC:WIWF1:1,2016-01-10T22:00:00Z,25.5870,-81.0440,1.0,23.12,2 
ENP,ioos.station.NOAA.NDBC:WIWF1:1,2016-01-10T23:00:00Z,25.5870,-81.0440,1.0,23.2,2 
ENP,ioos.station.NOAA.NDBC:WIWF1:1,2016-01-11T00:00:00Z,25.5870,-81.0440,1.0,23.28,2 
ENP,ioos.station.NOAA.NDBC:WIWF1:1,2016-01-11T01:00:00Z,25.5870,-81.0440,1.0,23.3,2 
ENP,ioos.station.NOAA.NDBC:WIWF1:1,2016-01-11T02:00:00Z,25.5870,-81.0440,1.0,23.31,2 
ENP,ioos.station.NOAA.NDBC:WIWF1:1,2016-01-11T03:00:00Z,25.5870,-81.0440,1.0,23.31,2 
ENP,ioos.station.NOAA.NDBC:WIWF1:1,2016-01-11T04:00:00Z,25.5870,-81.0440,1.0,23.26,2 
ENP,ioos.station.NOAA.NDBC:WIWF1:1,2016-01-11T05:00:00Z,25.5870,-81.0440,1.0,23.14,2 
ENP,ioos.station.NOAA.NDBC:WIWF1:1,2016-01-11T06:00:00Z,25.5870,-81.0440,1.0,22.95,2 
ENP,ioos.station.NOAA.NDBC:WIWF1:1,2016-01-11T07:00:00Z,25.5870,-81.0440,1.0,22.68,2 
ENP,ioos.station.NOAA.NDBC:WIWF1:1,2016-01-11T08:00:00Z,25.5870,-81.0440,1.0,22.42,2 
ENP,ioos.station.NOAA.NDBC:WIWF1:1,2016-01-11T09:00:00Z,25.5870,-81.0440,1.0,22.33,2 
ENP,ioos.station.NOAA.NDBC:WIWF1:1,2016-01-11T10:00:00Z,25.5870,-81.0440,1.0,22.53,2 
ENP,ioos.station.NOAA.NDBC:WIWF1:1,2016-01-11T11:00:00Z,25.5870,-81.0440,1.0,22.55,2 
ENP,ioos.station.NOAA.NDBC:WIWF1:1,2016-01-11T12:00:00Z,25.5870,-81.0440,1.0,22.48,2 
ENP,ioos.station.NOAA.NDBC:WIWF1:1,2016-01-11T13:00:00Z,25.5870,-81.0440,1.0,22.35,2 
ENP,ioos.station.NOAA.NDBC:WIWF1:1,2016-01-11T14:00:00Z,25.5870,-81.0440,1.0,22.23,2 
ENP,ioos.station.NOAA.NDBC:WIWF1:1,2016-01-11T15:00:00Z,25.5870,-81.0440,1.0,22.0,2 
ENP,ioos.station.NOAA.NDBC:WIWF1:1,2016-01-11T16:00:00Z,25.5870,-81.0440,1.0,21.65,2 
ENP,ioos.station.NOAA.NDBC:WIWF1:1,2016-01-11T17:00:00Z,25.5870,-81.0440,1.0,21.38,2 
ENP,ioos.station.NOAA.NDBC:WIWF1:1,2016-01-11T18:00:00Z,25.5870,-81.0440,1.0,21.11,2 
ENP,ioos.station.NOAA.NDBC:WIWF1:1,2016-01-11T19:00:00Z,25.5870,-81.0440,1.0,20.93,2 
ENP,ioos.station.NOAA.NDBC:WIWF1:1,2016-01-11T20:00:00Z,25.5870,-81.0440,1.0,20.96,2 
ENP,ioos.station.NOAA.NDBC:WIWF1:1,2016-01-11T21:00:00Z,25.5870,-81.0440,1.0,21.13,2 
ENP,ioos.station.NOAA.NDBC:WIWF1:1,2016-01-11T22:00:00Z,25.5870,-81.0440,1.0,21.19,2 
ENP,ioos.station.NOAA.NDBC:WIWF1:1,2016-01-11T23:00:00Z,25.5870,-81.0440,1.0,21.17,2 
ENP,ioos.station.NOAA.NDBC:WIWF1:1,2016-01-12T00:00:00Z,25.5870,-81.0440,1.0,21.15,2 
ENP,ioos.station.NOAA.NDBC:WIWF1:1,2016-01-12T01:00:00Z,25.5870,-81.0440,1.0,21.15,2 
ENP,ioos.station.NOAA.NDBC:WIWF1:1,2016-01-12T02:00:00Z,25.5870,-81.0440,1.0,21.07,2 
ENP,ioos.station.NOAA.NDBC:WIWF1:1,2016-01-12T03:00:00Z,25.5870,-81.0440,1.0,20.81,2 
ENP,ioos.station.NOAA.NDBC:WIWF1:1,2016-01-12T04:00:00Z,25.5870,-81.0440,1.0,20.63,2 
ENP,ioos.station.NOAA.NDBC:WIWF1:1,2016-01-12T05:00:00Z,25.5870,-81.0440,1.0,20.41,2 
ENP,ioos.station.NOAA.NDBC:WIWF1:1,2016-01-12T07:00:00Z,25.5870,-81.0440,1.0,19.96,2 
ENP,ioos.station.NOAA.NDBC:WIWF1:1,2016-01-12T08:00:00Z,25.5870,-81.0440,1.0,19.51,2 
ENP,ioos.station.NOAA.NDBC:WIWF1:1,2016-01-12T09:00:00Z,25.5870,-81.0440,1.0,19.44,2 
ENP,ioos.station.NOAA.NDBC:WIWF1:1,2016-01-12T10:00:00Z,25.5870,-81.0440,1.0,19.47,2 
ENP,ioos.station.NOAA.NDBC:WIWF1:1,2016-01-12T11:00:00Z,25.5870,-81.0440,1.0,19.65,2 
ENP,ioos.station.NOAA.NDBC:WIWF1:1,2016-01-12T12:00:00Z,25.5870,-81.0440,1.0,19.79,2 
ENP,ioos.station.NOAA.NDBC:WIWF1:1,2016-01-12T13:00:00Z,25.5870,-81.0440,1.0,19.87,2 
ENP,ioos.station.NOAA.NDBC:WIWF1:1,2016-01-12T14:00:00Z,25.5870,-81.0440,1.0,19.88,2 
ENP,ioos.station.NOAA.NDBC:WIWF1:1,2016-01-12T16:00:00Z,25.5870,-81.0440,1.0,19.31,2 
ENP,ioos.station.NOAA.NDBC:WIWF1:1,2016-01-12T18:00:00Z,25.5870,-81.0440,1.0,18.68,2 
ENP,ioos.station.NOAA.NDBC:WIWF1:1,2016-01-12T19:00:00Z,25.5870,-81.0440,1.0,18.58,2 
ENP,ioos.station.NOAA.NDBC:WIWF1:1,2016-01-12T23:00:00Z,25.5870,-81.0440,1.0,18.7,2 
ENP,ioos.station.NOAA.NDBC:WIWF1:1,2016-01-13T01:00:00Z,25.5870,-81.0440,1.0,19.03,2 
ENP,ioos.station.NOAA.NDBC:WIWF1:1,2016-01-13T03:00:00Z,25.5870,-81.0440,1.0,18.97,2 
ENP,ioos.station.NOAA.NDBC:WIWF1:1,2016-01-13T04:00:00Z,25.5870,-81.0440,1.0,18.61,2 
ENP,ioos.station.NOAA.NDBC:WIWF1:1,2016-01-13T05:00:00Z,25.5870,-81.0440,1.0,18.33,2 
ENP,ioos.station.NOAA.NDBC:WIWF1:1,2016-01-13T06:00:00Z,25.5870,-81.0440,1.0,18.11,2 
ENP,ioos.station.NOAA.NDBC:WIWF1:1,2016-01-13T07:00:00Z,25.5870,-81.0440,1.0,17.92,2 
ENP,ioos.station.NOAA.NDBC:WIWF1:1,2016-01-13T08:00:00Z,25.5870,-81.0440,1.0,17.75,2 
ENP,ioos.station.NOAA.NDBC:WIWF1:1,2016-01-13T09:00:00Z,25.5870,-81.0440,1.0,17.55,2 
ENP,ioos.station.NOAA.NDBC:WIWF1:1,2016-01-13T10:00:00Z,25.5870,-81.0440,1.0,17.43,2 
ENP,ioos.station.NOAA.NDBC:WIWF1:1,2016-01-13T11:00:00Z,25.5870,-81.0440,1.0,17.79,2 
ENP,ioos.station.NOAA.NDBC:WIWF1:1,2016-01-13T12:00:00Z,25.5870,-81.0440,1.0,18.05,2 
ENP,ioos.station.NOAA.NDBC:WIWF1:1,2016-01-13T13:00:00Z,25.5870,-81.0440,1.0,17.94,2 
ENP,ioos.station.NOAA.NDBC:WIWF1:1,2016-01-13T14:00:00Z,25.5870,-81.0440,1.0,17.89,2 
ENP,ioos.station.NOAA.NDBC:WIWF1:1,2016-01-13T15:00:00Z,25.5870,-81.0440,1.0,17.71,2 
ENP,ioos.station.NOAA.NDBC:WIWF1:1,2016-01-13T16:00:00Z,25.5870,-81.0440,1.0,17.13,2 
ENP,ioos.station.NOAA.NDBC:WIWF1:1,2016-01-13T18:00:00Z,25.5870,-81.0440,1.0,16.83,2 
ENP,ioos.station.NOAA.NDBC:WIWF1:1,2016-01-13T19:00:00Z,25.5870,-81.0440,1.0,16.84,2 
ENP,ioos.station.NOAA.NDBC:WIWF1:1,2016-01-13T20:00:00Z,25.5870,-81.0440,1.0,16.94,2 
ENP,ioos.station.NOAA.NDBC:WIWF1:1,2016-01-13T21:00:00Z,25.5870,-81.0440,1.0,17.13,2 
ENP,ioos.station.NOAA.NDBC:WIWF1:1,2016-01-13T22:00:00Z,25.5870,-81.0440,1.0,17.36,2 
ENP,ioos.station.NOAA.NDBC:WIWF1:1,2016-01-13T23:00:00Z,25.5870,-81.0440,1.0,17.38,2 
ENP,ioos.station.NOAA.NDBC:WIWF1:1,2016-01-14T00:00:00Z,25.5870,-81.0440,1.0,17.38,2 
ENP,ioos.station.NOAA.NDBC:WIWF1:1,2016-01-14T01:00:00Z,25.5870,-81.0440,1.0,17.47,2 
ENP,ioos.station.NOAA.NDBC:WIWF1:1,2016-01-14T02:00:00Z,25.5870,-81.0440,1.0,17.49,2 
ENP,ioos.station.NOAA.NDBC:WIWF1:1,2016-01-14T03:00:00Z,25.5870,-81.0440,1.0,17.45,2 
ENP,ioos.station.NOAA.NDBC:WIWF1:1,2016-01-14T04:00:00Z,25.5870,-81.0440,1.0,17.38,2 
ENP,ioos.station.NOAA.NDBC:WIWF1:1,2016-01-14T05:00:00Z,25.5870,-81.0440,1.0,17.22,2 
ENP,ioos.station.NOAA.NDBC:WIWF1:1,2016-01-14T06:00:00Z,25.5870,-81.0440,1.0,17.13,2 
ENP,ioos.station.NOAA.NDBC:WIWF1:1,2016-01-14T07:00:00Z,25.5870,-81.0440,1.0,17.05,2 
ENP,ioos.station.NOAA.NDBC:WIWF1:1,2016-01-14T08:00:00Z,25.5870,-81.0440,1.0,16.97,2 
ENP,ioos.station.NOAA.NDBC:WIWF1:1,2016-01-14T09:00:00Z,25.5870,-81.0440,1.0,16.88,2 
ENP,ioos.station.NOAA.NDBC:WIWF1:1,2016-01-14T10:00:00Z,25.5870,-81.0440,1.0,16.8,2 
ENP,ioos.station.NOAA.NDBC:WIWF1:1,2016-01-14T12:00:00Z,25.5870,-81.0440,1.0,16.91,2 
ENP,ioos.station.NOAA.NDBC:WIWF1:1,2016-01-14T13:00:00Z,25.5870,-81.0440,1.0,17.01,2 
ENP,ioos.station.NOAA.NDBC:WIWF1:1,2016-01-14T14:00:00Z,25.5870,-81.0440,1.0,17.01,2 
ENP,ioos.station.NOAA.NDBC:WIWF1:1,2016-01-14T15:00:00Z,25.5870,-81.0440,1.0,16.99,2 
ENP,ioos.station.NOAA.NDBC:WIWF1:1,2016-01-14T16:00:00Z,25.5870,-81.0440,1.0,16.97,2 
ENP,ioos.station.NOAA.NDBC:WIWF1:1,2016-01-14T17:00:00Z,25.5870,-81.0440,1.0,16.88,2 
ENP,ioos.station.NOAA.NDBC:WIWF1:1,2016-01-14T18:00:00Z,25.5870,-81.0440,1.0,16.84,2 
ENP,ioos.station.NOAA.NDBC:WIWF1:1,2016-01-14T19:00:00Z,25.5870,-81.0440,1.0,16.88,2 
ENP,ioos.station.NOAA.NDBC:WIWF1:1,2016-01-14T20:00:00Z,25.5870,-81.0440,1.0,16.94,2 
ENP,ioos.station.NOAA.NDBC:WIWF1:1,2016-01-14T21:00:00Z,25.5870,-81.0440,1.0,17.06,2 
ENP,ioos.station.NOAA.NDBC:WIWF1:1,2016-01-14T22:00:00Z,25.5870,-81.0440,1.0,17.31,2 
ENP,ioos.station.NOAA.NDBC:WIWF1:1,2016-01-14T23:00:00Z,25.5870,-81.0440,1.0,17.37,2 
ENP,ioos.station.NOAA.NDBC:WIWF1:1,2016-01-15T00:00:00Z,25.5870,-81.0440,1.0,17.37,2 
ENP,ioos.station.NOAA.NDBC:WIWF1:1,2016-01-15T01:00:00Z,25.5870,-81.0440,1.0,17.38,2 
ENP,ioos.station.NOAA.NDBC:WIWF1:1,2016-01-15T02:00:00Z,25.5870,-81.0440,1.0,17.45,2 
ENP,ioos.station.NOAA.NDBC:WIWF1:1,2016-01-15T03:00:00Z,25.5870,-81.0440,1.0,17.47,2 
ENP,ioos.station.NOAA.NDBC:WIWF1:1,2016-01-15T04:00:00Z,25.5870,-81.0440,1.0,17.54,2 
ENP,ioos.station.NOAA.NDBC:WIWF1:1,2016-01-15T05:00:00Z,25.5870,-81.0440,1.0,17.57,2 
ENP,ioos.station.NOAA.NDBC:WIWF1:1,2016-01-15T06:00:00Z,25.5870,-81.0440,1.0,17.57,2 
ENP,ioos.station.NOAA.NDBC:WIWF1:1,2016-01-15T07:00:00Z,25.5870,-81.0440,1.0,17.6,2 
ENP,ioos.station.NOAA.NDBC:WIWF1:1,2016-01-15T08:00:00Z,25.5870,-81.0440,1.0,17.63,2 
ENP,ioos.station.NOAA.NDBC:WIWF1:1,2016-01-15T09:00:00Z,25.5870,-81.0440,1.0,17.7,2 
ENP,ioos.station.NOAA.NDBC:WIWF1:1,2016-01-15T10:00:00Z,25.5870,-81.0440,1.0,17.82,2 
ENP,ioos.station.NOAA.NDBC:WIWF1:1,2016-01-15T12:00:00Z,25.5870,-81.0440,1.0,17.87,2 
ENP,ioos.station.NOAA.NDBC:WIWF1:1,2016-01-15T13:00:00Z,25.5870,-81.0440,1.0,17.93,2 
ENP,ioos.station.NOAA.NDBC:WIWF1:1,2016-01-15T14:00:00Z,25.5870,-81.0440,1.0,18.0,2 
ENP,ioos.station.NOAA.NDBC:WIWF1:1,2016-01-15T16:00:00Z,25.5870,-81.0440,1.0,18.28,2 
ENP,ioos.station.NOAA.NDBC:WIWF1:1,2016-01-15T17:00:00Z,25.5870,-81.0440,1.0,18.4,2 
ENP,ioos.station.NOAA.NDBC:WIWF1:1,2016-01-15T18:00:00Z,25.5870,-81.0440,1.0,18.53,2 
ENP,ioos.station.NOAA.NDBC:WIWF1:1,2016-01-15T19:00:00Z,25.5870,-81.0440,1.0,18.76,2 
ENP,ioos.station.NOAA.NDBC:WIWF1:1,2016-01-15T20:00:00Z,25.5870,-81.0440,1.0,18.99,2 
ENP,ioos.station.NOAA.NDBC:WIWF1:1,2016-01-16T00:00:00Z,25.5870,-81.0440,1.0,19.21,2 
ENP,ioos.station.NOAA.NDBC:WIWF1:1,2016-01-16T01:00:00Z,25.5870,-81.0440,1.0,19.19,2 
ENP,ioos.station.NOAA.NDBC:WIWF1:1,2016-01-16T02:00:00Z,25.5870,-81.0440,1.0,19.21,2 
ENP,ioos.station.NOAA.NDBC:WIWF1:1,2016-01-16T05:00:00Z,25.5870,-81.0440,1.0,19.29,2 
ENP,ioos.station.NOAA.NDBC:WIWF1:1,2016-01-16T07:00:00Z,25.5870,-81.0440,1.0,19.3,2 
ENP,ioos.station.NOAA.NDBC:WIWF1:1,2016-01-16T08:00:00Z,25.5870,-81.0440,1.0,19.28,2 
ENP,ioos.station.NOAA.NDBC:WIWF1:1,2016-01-16T09:00:00Z,25.5870,-81.0440,1.0,19.22,2 
ENP,ioos.station.NOAA.NDBC:WIWF1:1,2016-01-16T10:00:00Z,25.5870,-81.0440,1.0,19.13,2 
ENP,ioos.station.NOAA.NDBC:WIWF1:1,2016-01-16T12:00:00Z,25.5870,-81.0440,1.0,18.83,2 
ENP,ioos.station.NOAA.NDBC:WIWF1:1,2016-01-16T15:00:00Z,25.5870,-81.0440,1.0,19.1,2 
ENP,ioos.station.NOAA.NDBC:WIWF1:1,2016-01-16T17:00:00Z,25.5870,-81.0440,1.0,19.24,2 
ENP,ioos.station.NOAA.NDBC:WIWF1:1,2016-01-16T18:00:00Z,25.5870,-81.0440,1.0,19.37,2 
ENP,ioos.station.NOAA.NDBC:WIWF1:1,2016-01-16T23:00:00Z,25.5870,-81.0440,1.0,21.02,2 
ENP,ioos.station.NOAA.NDBC:WIWF1:1,2016-01-17T00:00:00Z,25.5870,-81.0440,1.0,21.17,2 
ENP,ioos.station.NOAA.NDBC:WIWF1:1,2016-01-17T01:00:00Z,25.5870,-81.0440,1.0,21.15,2 